Location: Amber Place
(27.9751°N, 82.3711°W)
Time: 06:31:07
(UTC+00:00)

Envisat - Visible Passes

Search period start: 18 September 2021 00:00
Search period end: 28 September 2021 00:00
Orbit: 764 x 766 km, 98.2° (Epoch: 17 September)

Date Brightness Start Highest point End Pass type
(mag) Time Alt. Az. Time Alt. Az. Time Alt. Az.
18 Sep 4.3 10:05:15 10° NNE 10:10:02 42° E 10:14:49 10° S visible
19 Sep 5.8 09:29:53 10° NE 09:33:03 17° E 09:36:12 10° SE visible
20 Sep 3.1 10:30:18 10° NNE 10:35:23 82° ESE 10:40:27 10° S visible
21 Sep 4.9 09:54:01 10° NE 09:58:30 31° E 10:02:59 10° SSE visible
22 Sep 6.1 09:19:30 10° ENE 09:21:28 12° E 09:23:26 10° ESE visible
23 Sep 3.6 10:18:51 10° NNE 10:23:53 61° E 10:28:53 10° S visible
24 Sep 5.3 09:42:53 10° NE 09:46:57 24° E 09:50:59 10° SSE visible
25 Sep 3.0 10:44:08 10° N 10:49:11 69° WNW 10:54:13 10° SSW visible
26 Sep 4.1 10:07:30 10° NNE 10:12:21 46° E 10:17:12 10° S visible
27 Sep 5.7 09:31:57 10° NE 09:35:23 18° E 09:38:48 10° SE visible
